Regional Weather Roundup
Issued by NWS Kansas City/Pleasant Hill, MO

Home | Current Version | Previous Version | Graphics & Text | Print | Product List | Glossary Off
Versions: 1 2 3 4 5 6 7 8 9 10 11 12 13 14 15 16 17 18 19 20 21 22 23 24 25 26 27 28 29 30 31 32 33 34 35 36 37 38 39 40 41 42 43 44 45 46 47 48 49 50

000
ASUS43 KEAX 191004
RWREAX

WEATHER ROUNDUP FOR EASTERN KANSAS AND NORTHWEST MISSOURI
NATIONAL WEATHER SERVICE KANSAS CITY/PLEASANT HILL MO
500 AM CDT SUN APR 19 2015

KSZ040-057-103>105-MOZ028-029-037-043-191100-
...KANSAS CITY METROPOLITAN AREA...

CITY           SKY/WX    TMP DP  RH WIND       PRES   REMARKS
K.C. INTL      RAIN      55  54  96 SW13      29.75R FOG
K.C. DOWNTOWN  RAIN      57  54  89 W13       29.75R
LEES SUMMIT    TSTM      56  54  93 W10G24    29.74R FOG
OLATHE - IXD   LGT RAIN  53  52  96 W6        29.75F
OLATHE - OJC   CLOUDY    54  52  93 W12       29.74F
LAWRENCE       LGT RAIN  54  52  93 NE9       29.72F

$$

MOZ001>008-011>017-020>025-030>033-038>040-044>046-053-054-191100-
...NORTHERN AND CENTRAL MISSOURI...

CITY           SKY/WX    TMP DP  RH WIND       PRES   REMARKS
ST. JOSEPH     CLOUDY    58  57  97 CALM      29.72F
MOSBY          LGT RAIN  59  59 100 CALM      29.73F
WARRENSBURG    FOG       55  54  94 CALM      29.71F VSB 1/2
WHITEMAN AFB   PTCLDY    57  57  99 S5        29.70F
CLINTON        FOG       57  57 100 CALM      29.72F VSB<1/4
SEDALIA        FOG       55  53  93 S3        29.73F VSB 1/2
WARSAW         NOT AVBL
MARSHALL       CLOUDY    57  57 100 NE5       29.73F FOG
CHILLICOTHE      N/A     58  57  97 CALM      29.75F
MOBERLY        CLEAR     54  50  87 CALM      29.73F
KIRKSVILLE     FOG       53  53 100 CALM      29.75F VSB 3/4

$$

MOZ041-047>049-056>058-063>065-088>090-097-191100-
...EASTERN AND SOUTHERN MISSOURI...

CITY           SKY/WX    TMP DP  RH WIND       PRES   REMARKS
ST. LOUIS INTL MOCLDY    64  52  64 CALM      29.72F
SPIRIT OF STL  CLOUDY    59  56  89 CALM      29.71F
COLUMBIA       PTCLDY    56  54  93 E6        29.72F
JEFFERSON CITY CLOUDY    54  53  97 CALM      29.73S FOG
MEXICO         CLEAR    N/A N/A N/A E3        29.74F
ROLLA          CLOUDY    57  55  93 CALM      29.71F
LEBANON        MOCLDY    57  55  94 CALM      29.72F
OSAGE BEACH    CLOUDY    54  52  94 CALM      29.71F
SPRINGFIELD    CLOUDY    59  57  93 W16G23    29.72F
BRANSON        CLOUDY    57  57 100 CALM      29.74F
NEVADA         DRIZZLE   54  52  94 NW9       29.77F
JOPLIN         MOCLDY    55  51  86 N5        29.75F
WEST PLAINS    CLOUDY    59  57  93 NE5       29.71F

$$

IAZ060-094-KSZ022-034>040-054-083-096-NEZ052-066-093-191100-
...KANSAS...SOUTHEAST NEBRASKA AND IOWA...

CITY           SKY/WX    TMP DP  RH WIND       PRES   REMARKS
TOPEKA         CLOUDY    54  53  97 E5        29.71F
MANHATTAN      CLOUDY    51  50  96 SW7       29.73R
EMPORIA        MOCLDY    52  51  97 E6        29.71F
CHANUTE        CLOUDY    54  53  97 NE3       29.70F
WICHITA        CLOUDY    51  50  96 CALM      29.73S
OMAHA          FOG       57  56  96 SE3       29.74R VSB 1/4
LINCOLN        CLOUDY    55  51  86 S3        29.76F
FALLS CITY     CLOUDY    52  51  97 SE6       29.73S
LAMONI         FOG       58  57  97 CALM      29.74F VSB 1/4
DES MOINES     CLOUDY    59  56  89 CALM      29.76F

$$




USA.gov is the U.S. government's official web portal to all federal, state and local government web resources and services.